FW7492 Weather Reports


time (UTC)temp
F
wind
direction
speed
knots
gust
knots
rain 1hr
in
rain 24hr
in
rain mn
in
humidity
%
barometer
mb
20260507144614 51 0 2.6 6.1 0.00 0.00 0.00 48 1008.6
20260507143059 50 107 0.9 13.9 0.00 0.00 0.00 47 1008.8
20260507141615 49 131 6.1 14.8 0.00 0.00 0.00 44 1008.7
20260507140053 49 165 6.1 13.0 0.00 0.00 0.00 45 1008.9
20260507134556 48 89 4.3 10.4 0.00 0.00 0.00 47 1008.7
20260507133058 48 244 1.7 7.8 0.00 0.00 0.00 48 1008.9
20260507131556 48 160 0.0 4.3 0.00 0.00 0.00 52 1008.8
20260507130108 47 0 0.0 3.5 0.00 0.00 0.00 59 1008.6
20260507124608 47 0 0.0 4.3 0.00 0.00 0.00 60 1008.7
20260507123059 46 113 0.0 2.6 0.00 0.00 0.00 62 1008.7
20260507121556 45 0 0.0 6.1 0.00 0.00 0.00 64 1008.8
20260507120053 45 91 0.9 6.1 0.00 0.00 0.00 66 1008.8
20260507114558 44 0 0.0 2.6 0.00 0.00 0.00 67 1008.7
20260507113056 44 0 0.0 1.7 0.00 0.00 0.00 69 1008.8
20260507111555 44 0 0.0 4.3 0.00 0.00 0.00 70 1008.7
20260507110054 44 0 0.9 7.0 0.00 0.00 0.00 70 1008.5
20260507104556 44 91 1.7 6.1 0.00 0.00 0.00 71 1008.3
20260507103104 44 0 0.9 6.1 0.00 0.00 0.00 72 1008.3
20260507101554 45 93 1.7 7.8 0.00 0.00 0.00 72 1008.3
20260507100054 45 111 1.7 7.0 0.00 0.00 0.00 73 1008.2
20260507094554 45 0 4.3 7.8 0.00 0.00 0.00 72 1008.3
20260507093101 46 0 3.5 6.1 0.00 0.00 0.00 72 1008.2
20260507091558 46 83 1.7 5.2 0.00 0.00 0.00 73 1008.0
20260507090053 46 111 0.0 3.5 0.00 0.00 0.00 73 1008.0
20260507084554 47 134 0.9 7.0 0.00 0.01 0.00 74 1007.8
20260507083053 47 99 1.7 4.3 0.00 0.01 0.00 74 1007.8
20260507081557 47 107 0.9 3.5 0.00 0.01 0.00 73 1007.6
20260507074556 48 0 0.9 4.3 0.00 0.04 0.00 73 1007.6
20260507073105 48 0 0.0 3.5 0.00 0.04 0.00 74 1007.5
20260507071558 48 0 0.0 3.5 0.00 0.04 0.00 74 1007.4
20260507070100 48 0 0.9 4.3 0.00 0.04 0.00 73 1007.5
20260507064554 49 100 0.0 5.2 0.00 0.15 0.00 73 1007.6
20260507063057 49 177 1.7 5.2 0.00 0.15 0.00 71 1007.6
20260507061604 49 98 3.5 5.2 0.00 0.15 0.00 72 1007.6
20260507060058 49 101 1.7 4.3 0.00 0.15 0.00 72 1007.5
20260507054551 50 97 2.6 6.1 0.00 0.27 0.00 71 1007.7
20260507053057 50 113 4.3 6.1 0.00 0.27 0.00 71 1007.9
20260507051555 50 0 0.0 4.3 0.00 0.27 0.00 72 1007.6
20260507050056 51 103 2.6 6.1 0.00 0.27 0.00 70 1007.7
20260507044601 51 0 0.9 3.5 0.00 0.33 0.00 68 1007.7
20260507043057 52 0 1.7 3.5 0.00 0.33 0.00 68 1007.8
20260507041559 52 110 2.6 3.5 0.00 0.33 0.00 66 1007.8
20260507040054 52 100 0.9 3.5 0.00 0.33 0.00 66 1007.5
20260507034606 53 0 0.0 0.9 0.00 0.33 0.33 64 1007.6
20260507033059 53 108 0.9 2.6 0.00 0.33 0.33 59 1007.8
20260507031555 53 117 0.0 2.6 0.00 0.33 0.33 59 1007.8
20260507030101 53 0 0.0 0.9 0.00 0.33 0.33 59 1007.8
20260507024558 54 0 0.0 0.9 0.00 0.34 0.33 60 1007.8
20260507023055 54 0 0.0 0.9 0.00 0.34 0.33 59 1007.7
20260507021557 55 0 0.0 0.9 0.00 0.34 0.33 57 1007.6
20260507020055 55 0 0.0 0.0 0.00 0.34 0.33 55 1007.6
20260507014556 55 0 0.0 0.9 0.00 0.42 0.33 53 1007.4
20260507013101 55 0 0.0 2.6 0.00 0.42 0.33 53 1007.3
20260507011556 55 0 0.0 2.6 0.00 0.42 0.33 54 1007.1
20260507010050 56 0 0.0 1.7 0.00 0.42 0.33 55 1006.9
20260507004556 56 286 0.9 3.5 0.00 0.44 0.33 56 1006.9
20260507003051 56 0 0.0 2.6 0.00 0.44 0.33 55 1007.0
20260507001552 56 116 0.9 7.8 0.00 0.44 0.33 54 1006.5
20260507000054 57 110 1.7 7.0 0.00 0.44 0.33 52 1006.5
20260506234555 57 102 0.9 10.4 0.00 0.45 0.33 52 1006.2
20260506233052 58 0 0.9 5.2 0.00 0.45 0.33 51 1006.1
20260506231551 59 335 0.0 4.3 0.00 0.45 0.33 49 1005.9
20260506230055 58 314 1.7 7.0 0.00 0.45 0.33 50 1005.5
20260506224603 57 295 0.0 7.8 0.00 0.46 0.33 51 1005.9
20260506223049 58 0 0.0 5.2 0.00 0.46 0.33 50 1006.0
20260506221553 57 0 0.9 13.0 0.00 0.46 0.33 50 1006.3
20260506220052 58 0 0.0 7.8 0.00 0.46 0.33 50 1006.6
20260506214607 58 318 0.9 7.0 0.00 0.48 0.33 49 1006.7
20260506213054 58 92 1.7 8.7 0.00 0.48 0.33 48 1006.4
20260506211551 58 0 5.2 11.3 0.00 0.48 0.33 49 1006.3
20260506210055 59 122 1.7 6.1 0.00 0.48 0.33 47 1006.1
20260506204559 59 91 0.9 5.2 0.00 0.55 0.33 48 1006.0
20260506203052 58 0 1.7 11.3 0.00 0.55 0.33 50 1006.1
20260506201552 57 68 7.0 14.8 0.00 0.55 0.33 51 1006.1
20260506200051 59 104 1.7 9.6 0.00 0.55 0.33 49 1006.1
20260506194604 60 100 0.0 5.2 0.00 0.65 0.33 48 1006.0
20260506193057 59 0 0.0 11.3 0.00 0.65 0.33 49 1005.9
20260506191553 59 125 6.1 9.6 0.00 0.65 0.33 49 1005.5
20260506190052 59 100 5.2 10.4 0.00 0.65 0.33 47 1005.6
20260506184556 60 262 2.6 9.6 0.00 0.65 0.33 47 1005.5
20260506183100 61 143 0.0 8.7 0.00 0.65 0.33 47 1005.5
20260506181555 61 242 0.0 6.1 0.00 0.65 0.33 46 1005.7
20260506180101 60 0 0.9 6.1 0.00 0.65 0.33 47 1005.9
20260506174559 59 0 0.9 6.1 0.00 0.65 0.33 49 1006.1
20260506173100 59 245 0.0 6.1 0.00 0.65 0.33 49 1006.3
20260506171605 59 0 0.9 6.1 0.00 0.65 0.33 50 1006.3
20260506170059 57 0 0.9 5.2 0.00 0.65 0.33 53 1006.4
20260506164600 57 0 0.0 5.2 0.00 0.65 0.33 55 1006.4
20260506163105 56 269 0.9 4.3 0.00 0.65 0.33 55 1006.4
20260506161604 55 0 0.9 7.0 0.00 0.65 0.33 57 1006.6
20260506160058 55 0 0.0 7.0 0.00 0.65 0.33 57 1006.5
20260506154612 55 0 0.0 4.3 0.00 0.65 0.33 60 1006.4
20260506153055 54 0 0.0 5.2 0.00 0.65 0.33 65 1006.2
20260506151555 53 0 0.9 4.3 0.00 0.65 0.33 66 1006.7
20260506150056 52 0 0.0 5.2 0.00 0.65 0.33 66 1006.0